Zurück zum Katalog

NINGXIA-1 9

AktivWissenschaftLEO
NORAD 49021·PAYLOAD·🇨🇳 China

Gestartet Jul 9, 2021 von Taiyuan Satellite Launch Center

Loading…

Nächste Überflüge (nächste 24 Stunden)

TLE

AktuellSource: Space-Track

Epoche: Sep 14, 2026, 14:23 UTC

1 49021U 21064D   26257.59989023 -.00000273  00000-0 -81334-4 0  9993
2 49021  45.0018 183.0453 0009571 318.6517  41.3595 14.08519911266834

Verfolge NINGXIA-1 9 in Echtzeit mit AllMySat

Download on the App Store